TimeEST,TemperatureF,Dew PointF,Humidity,Sea Level PressureIn,VisibilityMPH,Wind Direction,Wind SpeedMPH,Gust SpeedMPH,PrecipitationIn,Events,Conditions,WindDirDegrees,DateUTC
12:15 AM,46.4,39.2,76,30.39,10.0,SE,3.5,-,N/A,,Clear,130,2013-11-05 05:15:00
12:35 AM,46.4,39.2,76,30.39,10.0,Calm,Calm,-,N/A,,Clear,0,2013-11-05 05:35:00
12:55 AM,48.2,39.2,71,30.40,10.0,Calm,Calm,-,N/A,,Clear,0,2013-11-05 05:55:00
1:15 AM,46.4,39.2,76,30.38,10.0,SE,4.6,-,N/A,,Clear,140,2013-11-05 06:15:00
1:35 AM,46.4,39.2,76,30.40,10.0,Calm,Calm,-,N/A,,Clear,0,2013-11-05 06:35:00
1:55 AM,48.2,39.2,71,30.40,10.0,Calm,Calm,-,N/A,,Clear,0,2013-11-05 06:55:00
2:15 AM,46.4,39.2,76,30.40,10.0,Calm,Calm,-,N/A,,Clear,0,2013-11-05 07:15:00
2:35 AM,48.2,39.2,71,30.40,10.0,Calm,Calm,-,N/A,,Clear,0,2013-11-05 07:35:00
2:55 AM,48.2,39.2,71,30.40,10.0,Calm,Calm,-,N/A,,Clear,0,2013-11-05 07:55:00
3:15 AM,46.4,39.2,76,30.40,10.0,SSE,3.5,-,N/A,,Clear,160,2013-11-05 08:15:00
3:35 AM,50.0,37.4,62,30.40,10.0,SSE,3.5,-,N/A,,Clear,160,2013-11-05 08:35:00
3:55 AM,50.0,37.4,62,30.40,10.0,Calm,Calm,-,N/A,,Clear,0,2013-11-05 08:55:00
4:15 AM,50.0,37.4,62,30.39,10.0,Calm,Calm,-,N/A,,Clear,0,2013-11-05 09:15:00
4:35 AM,50.0,35.6,58,30.42,10.0,Calm,Calm,-,N/A,,Clear,0,2013-11-05 09:35:00
4:55 AM,50.0,35.6,58,30.41,10.0,SSE,3.5,-,N/A,,Clear,160,2013-11-05 09:55:00
5:15 AM,48.2,35.6,62,30.41,10.0,SE,3.5,-,N/A,,Clear,140,2013-11-05 10:15:00
5:35 AM,50.0,35.6,58,30.42,10.0,SSE,3.5,-,N/A,,Clear,160,2013-11-05 10:35:00
5:55 AM,48.2,33.8,58,30.42,10.0,Calm,Calm,-,N/A,,Clear,0,2013-11-05 10:55:00
6:15 AM,48.2,33.8,58,30.40,10.0,SE,4.6,-,N/A,,Clear,130,2013-11-05 11:15:00
6:35 AM,46.4,35.6,66,30.41,10.0,SE,3.5,-,N/A,,Clear,140,2013-11-05 11:35:00
6:55 AM,46.4,35.6,66,30.41,10.0,Calm,Calm,-,N/A,,Clear,0,2013-11-05 11:55:00
7:15 AM,46.4,33.8,62,30.41,10.0,Calm,Calm,-,N/A,,Clear,0,2013-11-05 12:15:00
7:35 AM,46.4,33.8,62,30.42,10.0,Calm,Calm,-,N/A,,Clear,0,2013-11-05 12:35:00
7:55 AM,46.4,35.6,66,30.42,10.0,Calm,Calm,-,N/A,,Clear,0,2013-11-05 12:55:00
8:15 AM,46.4,35.6,66,30.43,10.0,Calm,Calm,-,N/A,,Clear,0,2013-11-05 13:15:00
8:35 AM,48.2,37.4,66,30.44,10.0,SE,3.5,-,N/A,,Clear,130,2013-11-05 13:35:00
8:55 AM,50.0,37.4,62,30.45,10.0,Calm,Calm,-,N/A,,Clear,0,2013-11-05 13:55:00
9:15 AM,50.0,37.4,62,30.45,10.0,Calm,Calm,-,N/A,,Clear,0,2013-11-05 14:15:00
9:35 AM,50.0,35.6,58,30.44,10.0,Calm,Calm,-,N/A,,Clear,0,2013-11-05 14:35:00
9:55 AM,51.8,35.6,54,30.45,10.0,SE,3.5,-,N/A,,Clear,130,2013-11-05 14:55:00
10:15 AM,51.8,35.6,54,30.44,10.0,South,4.6,-,N/A,,Clear,180,2013-11-05 15:15:00
10:35 AM,53.6,35.6,51,30.44,10.0,South,4.6,-,N/A,,Clear,180,2013-11-05 15:35:00
10:55 AM,55.4,35.6,47,30.44,10.0,Calm,Calm,-,N/A,,Clear,0,2013-11-05 15:55:00
11:15 AM,55.4,35.6,47,30.44,10.0,Calm,Calm,-,N/A,,Clear,0,2013-11-05 16:15:00
11:35 AM,57.2,33.8,41,30.44,10.0,Calm,Calm,-,N/A,,Clear,0,2013-11-05 16:35:00
11:55 AM,59.0,33.8,39,30.43,10.0,Calm,Calm,-,N/A,,Clear,0,2013-11-05 16:55:00
12:15 PM,59.0,33.8,39,30.42,10.0,Calm,Calm,-,N/A,,Clear,0,2013-11-05 17:15:00
12:35 PM,60.8,32.0,34,30.41,10.0,SSW,5.8,-,N/A,,Clear,200,2013-11-05 17:35:00
12:55 PM,62.6,32.0,32,30.40,10.0,South,5.8,-,N/A,,Clear,180,2013-11-05 17:55:00
1:15 PM,62.6,32.0,32,30.39,10.0,Calm,Calm,-,N/A,,Clear,0,2013-11-05 18:15:00
1:35 PM,62.6,32.0,32,30.37,10.0,SSE,4.6,-,N/A,,Clear,160,2013-11-05 18:35:00
1:55 PM,62.6,32.0,32,30.37,10.0,South,4.6,-,N/A,,Clear,180,2013-11-05 18:55:00
2:15 PM,62.6,32.0,32,30.37,10.0,West,3.5,-,N/A,,Clear,280,2013-11-05 19:15:00
2:35 PM,62.6,32.0,32,30.36,10.0,WNW,3.5,-,N/A,,Clear,290,2013-11-05 19:35:00
2:55 PM,62.6,33.8,34,30.35,10.0,West,3.5,-,N/A,,Clear,270,2013-11-05 19:55:00
3:15 PM,64.4,33.8,32,30.34,10.0,Calm,Calm,-,N/A,,Clear,0,2013-11-05 20:15:00
3:35 PM,64.4,33.8,32,30.33,10.0,Calm,Calm,-,N/A,,Clear,0,2013-11-05 20:35:00
3:55 PM,64.4,33.8,32,30.33,10.0,Calm,Calm,-,N/A,,Clear,0,2013-11-05 20:55:00
4:15 PM,64.4,33.8,32,30.33,10.0,Calm,Calm,-,N/A,,Clear,0,2013-11-05 21:15:00
4:35 PM,64.4,33.8,32,30.33,10.0,Calm,Calm,-,N/A,,Clear,0,2013-11-05 21:35:00
4:55 PM,62.6,33.8,34,30.32,10.0,Calm,Calm,-,N/A,,Clear,0,2013-11-05 21:55:00
5:15 PM,60.8,33.8,36,30.32,10.0,Calm,Calm,-,N/A,,Clear,0,2013-11-05 22:15:00
5:35 PM,60.8,33.8,36,30.31,10.0,Calm,Calm,-,N/A,,Clear,0,2013-11-05 22:35:00
5:55 PM,60.8,33.8,36,30.31,10.0,Calm,Calm,-,N/A,,Clear,0,2013-11-05 22:55:00
6:15 PM,55.4,33.8,44,30.32,10.0,Calm,Calm,-,N/A,,Clear,0,2013-11-05 23:15:00
6:35 PM,55.4,35.6,47,30.32,10.0,Calm,Calm,-,N/A,,Clear,0,2013-11-05 23:35:00
6:55 PM,55.4,35.6,47,30.32,10.0,Calm,Calm,-,N/A,,Clear,0,2013-11-05 23:55:00
7:15 PM,53.6,37.4,54,30.31,10.0,Calm,Calm,-,N/A,,Clear,0,2013-11-06 00:15:00
7:35 PM,53.6,35.6,51,30.31,10.0,SSE,3.5,-,N/A,,Clear,150,2013-11-06 00:35:00
7:55 PM,53.6,35.6,51,30.31,10.0,Calm,Calm,-,N/A,,Clear,0,2013-11-06 00:55:00
8:15 PM,51.8,35.6,54,30.30,10.0,Calm,Calm,-,N/A,,Clear,0,2013-11-06 01:15:00
8:35 PM,51.8,35.6,54,30.30,10.0,Calm,Calm,-,N/A,,Clear,0,2013-11-06 01:35:00
8:55 PM,51.8,35.6,54,30.30,10.0,Calm,Calm,-,N/A,,Clear,0,2013-11-06 01:55:00
9:15 PM,50.0,37.4,62,30.30,10.0,Calm,Calm,-,N/A,,Clear,0,2013-11-06 02:15:00
9:35 PM,48.2,37.4,66,30.30,10.0,East,3.5,-,N/A,,Clear,100,2013-11-06 02:35:00
9:55 PM,48.2,37.4,66,30.30,10.0,ESE,3.5,-,N/A,,Clear,120,2013-11-06 02:55:00
10:15 PM,50.0,37.4,62,30.30,10.0,ESE,3.5,-,N/A,,Scattered Clouds,120,2013-11-06 03:15:00
10:35 PM,51.8,37.4,58,30.30,10.0,Calm,Calm,-,N/A,,Clear,0,2013-11-06 03:35:00
10:55 PM,50.0,37.4,62,30.30,10.0,Calm,Calm,-,N/A,,Clear,0,2013-11-06 03:55:00
11:15 PM,50.0,37.4,62,30.30,10.0,Calm,Calm,-,N/A,,Clear,0,2013-11-06 04:15:00
11:35 PM,48.2,37.4,66,30.30,10.0,Calm,Calm,-,N/A,,Clear,0,2013-11-06 04:35:00
11:55 PM,48.2,37.4,66,30.29,10.0,South,3.5,-,N/A,,Clear,190,2013-11-06 04:55:00